Regional Weather Roundup
Issued by NWS Upton, NY

Current Version | Previous Version | Text Only | Print | Product List | Glossary On
Versions: 1 2 3 4 5 6 7 8 9 10 11 12 13 14 15 16 17 18 19 20 21 22 23 24 25 26 27 28 29 30 31 32 33 34 35 36 37 38 39 40 41 42 43 44 45 46 47 48 49 50
000 ASUS41 KOKX 120304 RWROKX REGIONAL WEATHER ROUNDUP NATIONAL WEATHER SERVICE NEW YORK NY 1000 PM EST THU FEB 11 2016 NOTE: "FAIR" INDICATES FEW OR NO CLOUDS BELOW 12,000 FEET WITH NO SIGNIFICANT WEATHER AND/OR OBSTRUCTIONS TO VISIBILITY. NYZ071-072-176-178-NJZ106-104-120400- NEW YORK CITY METRO AREA CITY SKY/WX TMP DP RH WIND PRES REMARKS CENTRAL PARK CLEAR 20 -4 34 NW8G20 30.17R WCI 10 LAGUARDIA APRT PTCLDY 21 3 45 NW18G25 30.16R WCI 6 KENNEDY INTL PTCLDY 21 -5 31 NW28G38 30.17R WCI 3 NEWARK/LIBERTY PTCLDY 20 -3 36 W21G28 30.18R WCI 4 BRNX BOT. GARD N/A 19 1 45 NW8 30.16S WCI 9 TETERBORO CLEAR 19 -1 41 NW15G23 30.17R WCI 5 $$ NYZ177-179-078>081-120400- LONG ISLAND NEW YORK CITY SKY/WX TMP DP RH WIND PRES REMARKS FARMINGDALE MOCLDY 20 -1 40 NW13G22 30.15R WCI 7 ISLIP PTCLDY 18 0 45 W23G31 30.12R WCI 0 SHIRLEY CLEAR 18 -2 41 NW20G36 30.14R WCI 2 RIVERHEAD N/A 19 -13 23 W18 30.08S WCI 4 WESTHAMPTON CLEAR 16 -2 45 W21G33 30.12R WCI -1 EAST HAMPTON FAIR 17 -2 43 NW13G29 30.07R WCI 4 MONTAUK POINT N/A 19 2 47 NW20G28 30.08R WCI 3 $$ NYZ052-065-067-120400- HUDSON VALLEY CITY SKY/WX TMP DP RH WIND PRES REMARKS WHITE PLAINS PTCLDY 16 -1 47 NW21G33 30.10R WCI -1 NEWBURGH CLEAR 14 1 57 NW22G35 30.12R WCI -4 MONTGOMERY CLEAR 15 0 51 W17G24 30.12R WCI -1 POUGHKEEPSIE PTCLDY 17 -3 41 W13 30.13R WCI 4 ALBANY PTCLDY 9 -4 55 NW8 30.13R WCI -3 $$ NJZ001-105-106-008-010-013-015-019>022-104-120400- NEW JERSEY CITY SKY/WX TMP DP RH WIND PRES REMARKS NEWARK/LIBERTY PTCLDY 20 -3 36 W21G28 30.18R WCI 4 TETERBORO CLEAR 19 -1 41 NW15G23 30.17R WCI 5 CALDWELL CLEAR 18 -5 36 NW13G20 30.17R WCI 5 MORRISTOWN NOT AVBL SOMERVILLE CLEAR 19 -1 41 NW12G21 30.18R WCI 7 SUSSEX CLEAR 15 0 51 NW6 30.14R WCI 6 ANDOVER N/A 15 -3 44 VRB5 30.15R WCI 8 TRENTON PTCLDY 20 7 57 NW10G17 30.20R WCI 9 MILLVILLE CLEAR 22 3 44 W18G25 30.25R WCI 7 ATLANTIC CITY CLEAR 22 1 40 W12G22 30.23R WCI 10 WRIGHTSTOWN PTCLDY 21 0 39 W15G25 30.18R WCI 8 TOMS RIVER MOCLDY 21 1 42 W13G18 30.20R WCI 9 BELMAR CLEAR 21 0 39 W14G22 30.17R WCI 8 $$ PAZ047>061-062-071-120400- EASTERN PENNSYLVANIA CITY SKY/WX TMP DP RH WIND PRES REMARKS PHILADELPHIA CLEAR 22 -2 35 W16 30.25R WCI 8 ALLENTOWN MOCLDY 19 6 57 W13 30.19R WCI 6 SCRANTON CLOUDY 14 -1 51 NW20 30.13R WCI -3 $$ CTZ002-004>006-009-010-012-RIZ004-006-007-MAZ004-011-015-120400- SOUTHERN NEW ENGLAND IN CT CITY SKY/WX TMP DP RH WIND PRES REMARKS BRADLEY INTL PTCLDY 12 -1 56 W15 30.07R WCI -4 HARTFORD PTCLDY 15 -4 42 NW8G18 30.10R WCI 4 DANBURY CLEAR 14 -6 40 W14G21 30.10R WCI -1 WTRBRY/OXFORD CLEAR 12 -11 34 W10 30.04R WCI -1 BRIDGEPORT CLEAR 17 -3 41 NW22G29 30.12R WCI 0 MERIDEN PTCLDY 15 -6 39 NW10 30.08R WCI 2 NEW HAVEN CLEAR 17 -2 43 W14G21 30.10R WCI 3 CHESTER FAIR 16 -4 41 W13G20 30.05R WCI 2 GROTON CLEAR 15 -1 49 W15 30.07R WCI 0 WILLIMANTIC PTCLDY 14 -5 42 NW12 30.06R WCI 0 IN RI CITY SKY/WX TMP DP RH WIND PRES REMARKS PROVIDENCE CLEAR 14 -2 49 W16G28 30.03R WCI -2 BLOCK ISLAND PTCLDY 18 1 49 NW16G32 30.03R WCI 3 WESTERLY CLEAR 15 -4 42 W8G20 30.07R WCI 4 IN MA CITY SKY/WX TMP DP RH WIND PRES REMARKS BOSTON CLEAR 13 -3 49 W17G28 29.98R WCI -4 WORCESTER CLEAR 7 -6 55 W16G28 29.91R WCI -11 WESTFIELD NOT AVBL PROVINCETOWN PTCLDY 16 4 59 W25G38 29.95 WCI -3 NANTUCKET PTCLDY 18 1 47 W24G35 29.98R WCI 0 $$ ANZ330-335-338-340-345-350-353-355-120400- COASTAL MARINE OBSERVATIONS STATION/POSITION TIME SKY/WX TEMP WIND PRES VSBY WAVE AIR SEA DIR/SP/G HT/PER (UTC) (F) (DEG/KT/KT) (MB) (MI) (FT/S) NY HARB ENTRANCE 0150 25 42 290/ 29/ 37 1019.4 5/ 5 4S FIRE IS NOT AVBL 20S FIRE ISLAND 0150 26 44 300/ 29/ 37 1018.6 9/ 7 GREAT SOUTH BAY NOT AVBL 23SW MTP 0250 23 45 290/ 33/ 41 1017.8 9/ 8 HUDSON CANYON 0150 29 48 1018.5 15/ 8 KINGS POINT 0200 21 36 N/A EXECUTION ROCKS NOT AVBL CENTRAL LI SOUND 0230 21 300/ 23/ 31 N/A 5/ 5 EASTERN LI SOUND 0200 21 41 310/ 17/ 23 N/A ROBBINS REEF 0200 21 N/A $$ >>>>>>>>>>>>>>>>>>>>>>>>>>>> KEY <<<<<<<<<<<<<<<<<<<<<<<<<<< > < > SKY/WX - SKY CONDITION/PRESENT WEATHER < > TMP - TEMPERATURE IN FAHRENHEIT < > DP - DEWPOINT IN FAHRENHEIT < > RH - RELATIVE HUMIDITY IN PERCENT < > WIND - DIRECTION AND SPEED IN MPH < > PRES - MEAN SEA LEVEL PRESSURE IN INCHES OF HG < > WCI - WIND CHILL INDEX < > VSB - VISIBILITY IN MILES < > HX - HEAT INDEX < > TC - TEMPERATURE IN CELSIUS < > VRB - VARIABLE WIND DIRECTION < > < >>>>>>>>>>>>>>>>>>>>>>>>>>>> KEY <<<<<<<<<<<<<<<<<<<<<<<<<<<

USA.gov is the U.S. government's official web portal to all federal, state and local government web resources and services.